FW2365 Weather Reports


Display with metric or nautical units.
time (UTC)temp
F
wind
direction
speed
MPH
gust
MPH
rain 1hr
in
rain 24hr
in
rain mn
in
humidity
%
barometer
mb
20260901044052 53 154 0.0 0.0 0.00 0.43 0.01 96 1026.2
20260901043550 53 154 0.0 0.0 0.00 0.43 0.01 96 1026.1
20260901043051 53 154 0.0 0.0 0.00 0.43 0.01 96 1026.1
20260901042554 53 154 0.0 0.0 0.00 0.43 0.01 96 1026.0
20260901042049 53 154 0.0 0.0 0.00 0.43 0.01 96 1026.1
20260901041549 53 154 0.0 0.0 0.01 0.43 0.01 96 1026.1
20260901041049 53 154 0.0 0.0 0.01 0.43 0.01 96 1026.2
20260901040549 54 154 0.0 0.0 0.01 0.43 0.01 96 1026.1
20260901040107 54 154 0.0 0.0 0.01 0.43 0.01 96 1026.1
20260901035551 54 154 0.0 2.0 0.01 0.52 0.01 96 1026.1
20260901035047 54 154 0.0 2.0 0.01 0.52 0.01 96 1026.1
20260901034604 54 154 0.0 4.0 0.01 0.52 0.01 96 1026.1
20260901034048 54 154 1.0 4.0 0.01 0.52 0.01 96 1026.1
20260901033547 54 154 1.0 3.0 0.01 0.52 0.01 96 1026.0
20260901033047 54 154 1.0 3.0 0.01 0.52 0.01 96 1026.1
20260901032546 54 154 1.0 3.0 0.01 0.52 0.01 96 1026.1
20260901032052 54 154 0.0 0.0 0.00 0.51 0.00 96 1026.0
20260901031546 54 154 0.0 0.0 0.00 0.51 0.00 96 1026.1
20260901031045 54 154 0.0 0.0 0.00 0.51 0.00 95 1026.1
20260901030544 54 154 0.0 0.0 0.00 0.51 0.00 95 1026.1
20260901030044 54 154 0.0 0.0 0.00 0.51 0.00 96 1026.1
20260901025546 54 154 0.0 2.0 0.00 0.56 0.00 96 1026.1
20260901025044 54 154 0.0 3.0 0.00 0.56 0.00 96 1026.1
20260901024551 54 154 0.0 3.0 0.00 0.56 0.00 96 1026.1
20260901024043 54 154 0.0 4.0 0.00 0.56 0.00 96 1026.1
20260901023542 54 154 1.0 4.0 0.00 0.56 0.00 96 1026.1
20260901023057 55 154 0.0 2.0 0.00 0.56 0.00 95 1026.1
20260901022542 55 154 0.0 0.0 0.00 0.56 0.00 95 1026.1
20260901022043 55 154 0.0 0.0 0.00 0.56 0.00 95 1026.1
20260901021541 55 154 0.0 0.0 0.00 0.56 0.00 95 1026.2
20260901021040 55 154 0.0 0.0 0.00 0.56 0.00 95 1026.2
20260901020540 55 154 0.0 2.0 0.00 0.56 0.00 95 1026.1
20260901020044 55 154 0.0 2.0 0.00 0.56 0.00 95 1026.0
20260901015539 55 154 0.0 3.0 0.00 0.61 0.00 95 1026.1
20260901015039 55 154 0.0 3.0 0.00 0.61 0.00 95 1026.1
20260901014550 55 154 0.0 0.0 0.00 0.61 0.00 95 1026.1
20260901014038 55 154 0.0 3.0 0.00 0.61 0.00 96 1026.1
20260901013538 55 154 0.0 3.0 0.00 0.61 0.00 96 1026.1
20260901013038 55 154 1.0 3.0 0.00 0.61 0.00 96 1026.1
20260901012540 55 154 0.0 0.0 0.00 0.61 0.00 96 1026.1
20260901012037 55 154 0.0 1.0 0.00 0.61 0.00 96 1026.0
20260901011537 55 154 0.0 2.0 0.00 0.61 0.00 96 1026.0
20260901011037 55 154 1.0 3.0 0.00 0.61 0.00 96 1026.0
20260901010537 55 154 0.0 3.0 0.00 0.61 0.00 95 1026.0
20260901010036 55 154 0.0 3.0 0.00 0.61 0.00 96 1026.0
20260901005535 56 154 0.0 3.0 0.00 0.61 0.00 95 1026.0
20260901005035 56 154 0.0 3.0 0.00 0.61 0.00 96 1026.0
20260901004536 56 154 0.0 3.0 0.00 0.61 0.00 96 1026.0
20260901004034 56 154 1.0 3.0 0.00 0.61 0.00 96 1026.0
20260901003534 56 154 0.0 0.0 0.00 0.61 0.00 96 1026.0
20260901003033 56 154 0.0 0.0 0.00 0.61 0.00 95 1026.0
20260901002535 56 154 0.0 0.0 0.00 0.61 0.00 95 1025.9
20260901002032 56 154 0.0 0.0 0.00 0.61 0.00 95 1025.9
20260901001532 56 154 0.0 0.0 0.00 0.61 0.00 95 1025.9
20260901001031 56 154 0.0 0.0 0.00 0.61 0.00 95 1025.9
20260901000531 56 154 0.0 2.0 0.00 0.61 0.00 95 1025.9
20260901000031 56 154 0.0 2.0 0.00 0.61 0.00 95 1025.8
20260831235530 56 154 0.0 2.0 0.00 0.65 0.00 96 1025.8
20260831235030 56 154 1.0 2.0 0.00 0.65 0.00 95 1025.8
20260831234529 56 154 0.0 0.0 0.00 0.65 0.00 95 1025.7
20260831234028 56 154 0.0 0.0 0.00 0.65 0.00 95 1025.7
20260831233528 56 154 0.0 0.0 0.00 0.65 0.00 95 1025.7
20260831233027 56 154 0.0 0.0 0.00 0.65 0.00 95 1025.7
20260831232529 57 154 0.0 0.0 0.00 0.65 0.00 95 1025.7
20260831232026 57 154 0.0 0.0 0.00 0.65 0.00 95 1025.6
20260831231526 57 154 0.0 0.0 0.00 0.65 0.00 95 1025.5
20260831231026 57 154 0.0 0.0 0.00 0.65 0.00 95 1025.5
20260831230528 57 154 0.0 0.0 0.00 0.65 0.00 95 1025.5
20260831230025 57 154 0.0 0.0 0.00 0.65 0.00 95 1025.5
20260831225524 57 154 0.0 0.0 0.00 0.80 0.00 95 1025.5
20260831225025 57 154 0.0 0.0 0.00 0.80 0.00 95 1025.5
20260831224525 57 154 0.0 0.0 0.00 0.80 0.00 95 1025.5
20260831224024 57 154 0.0 0.0 0.00 0.80 0.00 95 1025.6
20260831223524 57 154 0.0 2.0 0.00 0.80 0.00 95 1025.6
20260831223026 57 154 0.0 2.0 0.00 0.80 0.00 95 1025.6
20260831222522 57 154 0.0 3.0 0.00 0.80 0.00 95 1025.4
20260831222022 57 154 0.0 3.0 0.00 0.80 0.00 95 1025.4
20260831221523 57 154 0.0 0.0 0.00 0.80 0.00 94 1025.3
20260831221020 57 154 0.0 1.0 0.00 0.80 0.00 94 1025.1
20260831220520 57 154 0.0 2.0 0.00 0.80 0.00 94 1025.1
20260831220019 57 154 0.0 2.0 0.00 0.80 0.00 94 1025.2
20260831215519 57 154 0.0 2.0 0.00 0.80 0.80 94 1025.1
20260831215019 57 154 0.0 2.0 0.00 0.80 0.80 94 1025.2
20260831214518 57 154 0.0 2.0 0.00 0.80 0.80 94 1025.2
20260831214017 57 154 0.0 3.0 0.00 0.80 0.80 94 1025.2
20260831213517 57 154 0.0 3.0 0.00 0.80 0.80 94 1025.3
20260831213017 57 154 0.0 0.0 0.00 0.80 0.80 94 1025.4
20260831212517 57 154 0.0 0.0 0.00 0.80 0.80 93 1025.4
20260831212016 58 154 0.0 0.0 0.00 0.80 0.80 93 1025.3
20260831211515 58 154 0.0 0.0 0.00 0.80 0.80 93 1025.1
20260831211014 58 154 0.0 0.0 0.00 0.80 0.80 93 1025.0
20260831210514 58 154 0.0 0.0 0.00 0.80 0.80 93 1025.0
20260831210013 58 154 0.0 2.0 0.00 0.80 0.80 93 1024.9
20260831205513 58 154 0.0 2.0 0.00 0.80 0.80 93 1024.8
20260831205012 58 154 1.0 3.0 0.00 0.80 0.80 93 1024.7
20260831204512 58 154 0.0 3.0 0.00 0.80 0.80 93 1024.7
20260831204010 58 154 0.0 0.0 0.00 0.80 0.80 93 1024.6
20260831203511 58 154 0.0 0.0 0.00 0.80 0.80 93 1024.5
20260831203010 58 154 0.0 0.0 0.00 0.80 0.80 93 1024.4
20260831202508 58 154 0.0 2.0 0.00 0.80 0.80 93 1024.3
20260831202010 58 154 0.0 2.0 0.00 0.80 0.80 93 1024.3
20260831201511 58 154 0.0 2.0 0.00 0.80 0.80 93 1024.3
20260831201008 58 154 0.0 2.0 0.00 0.80 0.80 93 1024.2
20260831200507 58 154 0.0 0.0 0.00 0.80 0.80 93 1024.2
20260831200015 58 154 0.0 0.0 0.00 0.80 0.80 93 1024.1
20260831195507 58 154 0.0 1.0 0.00 0.80 0.80 94 1024.2
20260831195006 58 154 0.0 3.0 0.00 0.80 0.80 94 1024.1
20260831194506 58 154 1.0 3.0 0.00 0.80 0.80 94 1024.0
20260831194005 58 154 1.0 3.0 0.00 0.80 0.80 94 1024.1
20260831193505 58 154 0.0 0.0 0.00 0.80 0.80 94 1024.0
20260831193003 58 154 0.0 0.0 0.00 0.80 0.80 94 1023.9
20260831192502 58 154 0.0 0.0 0.00 0.80 0.80 94 1023.8
20260831192007 58 154 0.0 0.0 0.02 0.80 0.80 94 1023.7
20260831191502 58 154 0.0 0.0 0.06 0.80 0.80 94 1023.8
20260831191105 58 153 0.0 3.0 0.06 0.80 0.80 93 1023.7
20260831190502 58 153 1.0 7.0 0.06 0.80 0.80 93 1023.5
20260831190110 58 153 3.0 7.0 0.06 0.80 0.80 94 1023.5
20260831185601 58 164 2.0 5.0 0.06 0.80 0.80 93 1023.5
20260831185059 58 163 1.0 5.0 0.06 0.80 0.80 93 1023.5
20260831184604 58 177 1.0 5.0 0.07 0.80 0.80 93 1023.3
20260831184102 58 160 1.0 5.0 0.07 0.80 0.80 94 1023.3
20260831183558 58 138 1.0 5.0 0.07 0.80 0.80 93 1023.3
20260831183058 58 304 0.0 0.0 0.07 0.80 0.80 93 1023.2
20260831182558 58 304 0.0 5.0 0.09 0.80 0.80 93 1023.2
20260831182058 58 309 1.0 6.0 0.12 0.78 0.78 91 1023.2
20260831181600 58 124 1.0 4.0 0.13 0.75 0.75 90 1023.3
20260831181058 58 210 0.0 3.0 0.12 0.73 0.73 91 1022.8
20260831180554 59 280 1.0 3.0 0.12 0.73 0.73 90 1022.3
20260831180054 59 243 0.0 0.0 0.12 0.73 0.73 91 1022.1
20260831175552 59 243 0.0 2.0 0.12 0.73 0.73 91 1022.2
20260831175052 59 243 0.0 2.0 0.12 0.73 0.73 91 1022.0
20260831174551 59 243 0.0 2.0 0.11 0.72 0.72 90 1021.8
20260831174053 59 178 0.0 2.0 0.11 0.72 0.72 89 1021.5
20260831173548 59 178 0.0 3.0 0.11 0.72 0.72 87 1021.3
20260831173048 60 161 1.0 5.0 0.11 0.72 0.72 88 1021.5
20260831172647 60 14 0.0 5.0 0.10 0.72 0.72 87 1021.6
20260831172050 60 271 3.0 5.0 0.03 0.65 0.65 85 1021.7
20260831171545 60 257 0.0 0.0 0.00 0.61 0.61 83 1021.5
20260831171043 60 257 0.0 2.0 0.00 0.61 0.61 84 1021.4
20260831170543 61 258 0.0 2.0 0.00 0.61 0.61 85 1021.2
20260831170043 61 172 0.0 2.0 0.11 0.61 0.61 84 1021.2
20260831165642 61 171 0.0 2.0 0.16 0.61 0.61 85 1021.2
20260831165044 61 171 0.0 0.0 0.22 0.61 0.61 85 1021.1
20260831164555 61 171 0.0 4.0 0.22 0.61 0.61 86 1021.0
20260831164044 61 171 0.0 4.0 0.22 0.61 0.61 84 1020.9
20260831163541 61 171 0.0 4.0 0.22 0.61 0.61 85 1021.1
20260831163042 61 176 0.0 6.0 0.22 0.61 0.61 87 1021.2
20260831162541 61 213 3.0 6.0 0.22 0.61 0.61 88 1021.2
20260831162042 61 173 2.0 4.0 0.22 0.61 0.61 87 1021.1
20260831161540 62 168 0.0 3.0 0.22 0.61 0.61 84 1020.8
20260831161043 63 174 0.0 8.0 0.22 0.61 0.61 83 1020.7
20260831160542 64 278 1.0 13.0 0.22 0.61 0.61 77 1020.9
20260831160045 65 243 7.0 13.0 0.09 0.49 0.49 71 1020.9
20260831155539 67 251 9.0 13.0 0.05 0.44 0.44 66 1020.7
20260831155040 68 297 4.0 15.0 0.00 0.39 0.39 63 1020.4
20260831154539 68 335 10.0 21.0 0.00 0.39 0.39 61 1019.9
20260831154037 69 291 13.0 23.0 0.00 0.39 0.39 60 1019.4
20260831153537 69 288 10.0 24.0 0.00 0.39 0.39 61 1019.2
20260831153037 69 276 13.0 24.0 0.00 0.39 0.39 62 1019.3
20260831152536 69 314 9.0 20.0 0.00 0.39 0.39 63 1019.5
20260831152037 69 314 11.0 17.0 0.00 0.39 0.39 63 1019.5
20260831151537 69 304 9.0 20.0 0.00 0.39 0.39 62 1019.6
20260831151137 70 324 11.0 21.0 0.00 0.39 0.39 62 1019.5
20260831150536 70 286 11.0 21.0 0.00 0.39 0.39 62 1019.5
20260831150043 70 309 10.0 17.0 0.00 0.39 0.39 61 1019.7
20260831145535 70 304 9.0 16.0 0.00 0.39 0.39 61 1019.7
20260831145038 70 325 8.0 18.0 0.00 0.39 0.39 62 1019.6
20260831144537 71 314 10.0 19.0 0.00 0.39 0.39 63 1019.7
20260831144034 71 279 9.0 19.0 0.00 0.39 0.39 64 1019.6
20260831143534 70 314 13.0 19.0 0.00 0.39 0.39 63 1019.5
20260831143038 71 338 10.0 16.0 0.00 0.39 0.39 64 1019.5
20260831142534 71 298 11.0 20.0 0.00 0.39 0.39 63 1019.3
20260831142037 71 297 10.0 20.0 0.00 0.39 0.39 63 1019.4
20260831141534 71 266 15.0 20.0 0.00 0.39 0.39 63 1019.4
20260831141033 71 291 11.0 20.0 0.00 0.39 0.39 64 1019.4
20260831140534 71 331 10.0 22.0 0.00 0.39 0.39 65 1019.4
20260831140033 71 318 8.0 22.0 0.00 0.39 0.39 64 1019.3
20260831135533 71 314 14.0 23.0 0.00 0.39 0.39 63 1019.2
20260831135036 71 314 14.0 23.0 0.00 0.39 0.39 62 1019.3
20260831134533 71 320 13.0 25.0 0.00 0.39 0.39 63 1019.3
20260831134032 72 304 13.0 23.0 0.00 0.39 0.39 64 1019.2
20260831133534 72 271 12.0 22.0 0.00 0.39 0.39 63 1019.1
20260831133031 72 294 11.0 22.0 0.00 0.39 0.39 63 1019.2
20260831132531 73 309 9.0 19.0 0.00 0.39 0.39 64 1019.1
20260831132031 73 291 10.0 19.0 0.00 0.39 0.39 64 1019.1
20260831131531 73 314 11.0 19.0 0.00 0.39 0.39 63 1019.1
20260831131032 73 304 8.0 15.0 0.00 0.39 0.39 64 1019.0
20260831130530 73 270 7.0 15.0 0.00 0.39 0.39 63 1019.1
20260831130030 73 324 8.0 15.0 0.00 0.39 0.39 63 1019.2
20260831125530 73 283 6.0 12.0 0.00 0.39 0.39 64 1019.3
20260831125028 73 287 6.0 12.0 0.00 0.39 0.39 64 1019.2
20260831124529 73 314 7.0 13.0 0.00 0.39 0.39 64 1019.2
20260831124031 73 314 7.0 13.0 0.00 0.39 0.39 65 1019.3
20260831123528 73 309 6.0 14.0 0.00 0.39 0.39 65 1019.3
20260831123028 73 309 8.0 14.0 0.00 0.39 0.39 63 1019.3
20260831122528 73 309 7.0 11.0 0.00 0.39 0.39 66 1019.3
20260831122027 73 304 4.0 11.0 0.00 0.39 0.39 66 1019.3
20260831121526 73 304 4.0 10.0 0.00 0.39 0.39 67 1019.3
20260831121027 73 304 5.0 10.0 0.00 0.39 0.39 66 1019.3
20260831120525 73 297 4.0 10.0 0.00 0.39 0.39 67 1019.3
20260831120034 73 291 5.0 12.0 0.00 0.39 0.39 65 1019.3
20260831115521 73 289 6.0 12.0 0.00 0.39 0.39 66 1019.4
20260831115021 73 299 5.0 10.0 0.00 0.39 0.39 67 1019.4
20260831114530 73 287 6.0 11.0 0.00 0.39 0.39 65 1019.4
20260831114020 73 291 6.0 11.0 0.00 0.39 0.39 67 1019.5
20260831113520 73 309 4.0 9.0 0.00 0.39 0.39 70 1019.5
20260831113019 72 281 5.0 9.0 0.00 0.39 0.39 68 1019.6
20260831112519 72 304 3.0 10.0 0.00 0.39 0.39 68 1019.6
20260831112018 72 298 5.0 10.0 0.00 0.39 0.39 69 1019.7
20260831111518 72 285 4.0 8.0 0.00 0.39 0.39 69 1019.7
20260831111017 72 292 3.0 6.0 0.00 0.39 0.39 70 1019.8
20260831110520 72 304 3.0 6.0 0.00 0.39 0.39 72 1019.7
20260831110016 72 309 3.0 8.0 0.00 0.39 0.39 72 1019.8
20260831105515 72 304 3.0 5.0 0.00 0.39 0.39 71 1019.8
20260831105015 72 314 1.0 5.0 0.00 0.39 0.39 72 1019.8
20260831104516 72 292 3.0 5.0 0.00 0.39 0.39 72 1019.8
20260831104014 71 282 1.0 4.0 0.00 0.39 0.39 72 1019.9
20260831103516 71 297 2.0 6.0 0.00 0.39 0.39 73 1020.0
20260831103012 70 304 1.0 6.0 0.00 0.39 0.39 74 1020.0
20260831102510 70 278 2.0 10.0 0.00 0.39 0.39 78 1020.1
20260831102010 70 309 3.0 10.0 0.00 0.39 0.39 78 1020.1
20260831101509 70 304 2.0 8.0 0.00 0.39 0.39 77 1020.2
20260831101009 69 335 1.0 4.0 0.00 0.39 0.39 83 1020.2
20260831100508 69 7 2.0 4.0 0.00 0.39 0.39 79 1020.3
20260831100008 70 1 1.0 3.0 0.00 0.39 0.39 81 1020.3
20260831095507 70 293 0.0 2.0 0.00 0.39 0.39 81 1020.4
20260831095006 69 293 0.0 2.0 0.00 0.39 0.39 82 1020.4
20260831094608 69 290 0.0 2.0 0.00 0.39 0.39 80 1020.4
20260831094004 69 287 0.0 0.0 0.00 0.39 0.39 87 1020.5
20260831093504 68 286 0.0 0.0 0.00 0.39 0.39 88 1020.6
20260831093101 67 287 0.0 0.0 0.00 0.39 0.39 86 1020.7
20260831092600 67 286 0.0 2.0 0.00 0.39 0.39 89 1020.8
20260831092057 66 286 0.0 2.0 0.00 0.39 0.39 89 1020.8
20260831091601 65 287 0.0 0.0 0.00 0.39 0.39 88 1020.8
20260831091057 65 298 0.0 3.0 0.00 0.39 0.39 91 1020.9
20260831090556 64 298 0.0 4.0 0.00 0.39 0.39 92 1020.8
20260831090055 64 298 2.0 4.0 0.00 0.39 0.39 92 1020.9
20260831085555 64 298 2.0 4.0 0.00 0.39 0.39 92 1020.9
20260831085056 64 298 0.0 2.0 0.00 0.39 0.39 91 1020.9
20260831084605 64 298 0.0 0.0 0.00 0.39 0.39 92 1020.9
20260831084054 64 296 0.0 0.0 0.00 0.39 0.39 92 1020.9
20260831083553 64 296 0.0 0.0 0.00 0.39 0.39 92 1020.9
20260831083104 64 296 0.0 0.0 0.00 0.39 0.39 91 1020.9
20260831082553 64 151 0.0 0.0 0.00 0.39 0.39 92 1020.9
20260831082052 64 145 0.0 0.0 0.00 0.39 0.39 92 1020.9
20260831081552 64 145 0.0 0.0 0.00 0.39 0.39 92 1020.9
20260831081052 63 145 0.0 0.0 0.00 0.39 0.39 92 1020.9
20260831080551 63 145 0.0 0.0 0.00 0.39 0.39 92 1020.8
20260831080051 63 145 0.0 0.0 0.00 0.39 0.39 92 1020.7
20260831075551 63 145 0.0 0.0 0.00 0.39 0.39 93 1020.7
20260831075051 63 145 0.0 0.0 0.00 0.39 0.39 93 1020.7
20260831074550 63 145 0.0 0.0 0.00 0.39 0.39 94 1020.7
20260831074049 63 145 0.0 0.0 0.00 0.39 0.39 94 1020.7
20260831073549 63 145 0.0 0.0 0.00 0.39 0.39 94 1020.7
20260831073048 63 145 0.0 0.0 0.00 0.39 0.39 93 1020.7
20260831072548 63 145 0.0 0.0 0.00 0.39 0.39 93 1020.7
20260831072047 63 145 0.0 0.0 0.00 0.39 0.39 93 1020.7
20260831071547 63 145 0.0 0.0 0.00 0.39 0.39 93 1020.7
20260831071047 63 145 0.0 0.0 0.00 0.39 0.39 93 1020.7
20260831070547 63 145 0.0 0.0 0.00 0.39 0.39 93 1020.7
20260831070047 63 145 0.0 0.0 0.00 0.39 0.39 91 1020.6
20260831065547 63 145 0.0 0.0 0.00 0.39 0.39 92 1020.7
20260831065049 63 145 0.0 0.0 0.00 0.39 0.39 92 1020.5
20260831064547 63 145 0.0 0.0 0.00 0.39 0.39 92 1020.6
20260831064047 63 145 0.0 0.0 0.00 0.39 0.39 92 1020.7
20260831063545 63 145 0.0 0.0 0.00 0.39 0.39 92 1020.7
20260831063045 64 145 0.0 0.0 0.00 0.39 0.39 91 1020.6
20260831062545 64 145 0.0 0.0 0.00 0.39 0.39 92 1020.6
20260831062044 64 145 0.0 0.0 0.00 0.39 0.39 92 1020.5
20260831061544 64 145 0.0 0.0 0.00 0.39 0.39 91 1020.6
20260831061043 63 145 0.0 0.0 0.00 0.39 0.39 94 1020.6
20260831060541 63 145 0.0 3.0 0.00 0.39 0.39 94 1020.5
20260831060046 62 145 0.0 3.0 0.00 0.39 0.39 95 1020.6
20260831055540 62 162 0.0 0.0 0.00 0.39 0.39 95 1020.5
20260831055040 62 162 0.0 0.0 0.00 0.39 0.39 95 1020.4
20260831054539 61 162 0.0 0.0 0.00 0.39 0.39 95 1020.4
20260831054039 61 162 0.0 0.0 0.00 0.39 0.39 95 1020.4
20260831053540 61 162 0.0 0.0 0.00 0.39 0.39 94 1020.4
20260831053037 61 162 0.0 0.0 0.00 0.39 0.39 95 1020.3
20260831052536 61 162 0.0 3.0 0.00 0.39 0.39 95 1020.3
20260831052035 61 162 1.0 3.0 0.00 0.39 0.39 95 1020.1
20260831051537 61 140 0.0 2.0 0.00 0.39 0.39 95 1020.0
20260831051035 61 140 0.0 2.0 0.00 0.39 0.39 95 1020.0
20260831050634 61 140 0.0 2.0 0.00 0.39 0.39 95 1020.1
20260831050033 61 140 0.0 0.0 0.01 0.39 0.39 95 1020.1
20260831045535 61 140 0.0 0.0 0.03 0.39 0.39 95 1020.1
20260831045032 61 140 0.0 0.0 0.05 0.39 0.39 95 1020.0
20260831044532 61 140 0.0 0.0 0.05 0.39 0.39 95 1020.0